Showing default

SIMSAT 2, 26366

Orbit data source: Space-Track

SIMSAT 2, 26366 is a payload satellite owned by Eurockot (CIS) in LEO that was launched on Tue, 16 May 2000 UTC via an ROKOT launch vehicle from the Plesetsk Missile And Space Complex (PKMTR). Payload-class satellites include a variety of spacecraft equipped with specific instruments for various scientific and technological missions. These include communications satellites like Starlink; space stations such as the ISS; scientific satellites like the Hubble; Earth observation satellites from companies like Planet Labs, Umbra, and HawkEye 360; GPS; miniature CubeSats for education and research; and military/defense satellites.

Loading next visibility...
Identifier
26366, 2000-026B
Orbit
LEO
Country
Flag of CISCIS
Related business
Manufacturer
Khrunichev
Mission
Commercial Technology
Bus & Motor
SIMSAT, Unknown motor
Mass
660 kg wet, 660 kg dry
Launch date (UTC)
2000-05-16 (26 years ago)
Launch vehicle
ROKOT
Launch site
Plesetsk Missile And Space Complex (PKMTR)
Object type
Payload
Rocket body
Debris
Shape & HBR
Box + 1 Arm, 1.8 m
Radar Cross Section
9.625 m², Large (>1 m²)

Expand to show TLE details & history
Last TLE update: 10 hours ago

TLE from 10 hours ago
0 SIMSAT 2
1 26366U 00026B   26035.47079221  .00003430  00000-0  12110-3 0  9997
2 26366  86.3480 192.8236 0008205  59.5422 300.6636 15.28798096422936
Epoch: 2026-02-04T11:17Z
TLE epoch observation values (Epoch: 2026-02-04T11:17:56.446Z)
Latitude
0.00002°
Longitude
-111.29849°
Altitude
479.72 km
Speed
7.627 km/s
True Right ascension
12h 51m 17s
True Declination
0° 00' 00"
Sunlit
Object was in full shadow at epoch
Visualization orbit readout
Latitude
Unknown
Longitude
Unknown
Altitude
Unknown
Speed
Unknown
Apparent Right ascension
Unknown
Apparent Declination
Unknown
Sunlit
N/A
Visualization observer readout
Local Sidereal Time
23:41:35
Azimuth
Unknown
Elevation
Unknown
Doppler factor
Unknown
Orbital elements
Apogee altitude
481.861 km
Perigee altitude
470.613 km
Semi-major axis
6,854.374 km
Eccentricity
0.00082
Inclination
86.348°
RAAN
192.8236°
Arg. of periapsis
59.5422°
True anomaly
300.58268°
Mean anomaly
300.6636°
Eccentric anomaly
300.62315°
Mean motion
3.82465 °/min
Orbital period
94.13 mins
BSTAR
0.0001211
Loading maneuver chart data...
Computing Atmospheric mass density...
Loading historical data...
Loading historical data...
Loading historical data...
Loading historical data...
Loading historical data...
Loading historical data...
Loading historical data...
Other satellites on launch #26 in the year 2000 (2000-05-16 UTC)

Documentation

Showing up to 5 results
|